EDT,Max TemperatureF,Mean TemperatureF,Min TemperatureF,Max Dew PointF,MeanDew PointF,Min DewpointF,Max Humidity, Mean Humidity, Min Humidity, Max Sea Level PressureIn, Mean Sea Level PressureIn, Min Sea Level PressureIn, Max VisibilityMiles, Mean VisibilityMiles, Min VisibilityMiles, Max Wind SpeedMPH, Mean Wind SpeedMPH, Max Gust SpeedMPH,PrecipitationIn, CloudCover, Events, WindDirDegrees
2012-10-1,71,66,62,66,63,59,88,85,78,29.82,29.73,29.67,10.0,6.3,0.8,12,6,17,0.00,8,Rain-Thunderstorm,110
2012-10-2,69,66,62,66,58,54,88,75,60,30.02,29.85,29.70,10.0,9.3,3.0,10,4,16,0.00,8,Thunderstorm,200
2012-10-3,69,64,59,59,53,46,88,72,43,30.23,30.13,30.03,10.0,6.9,0.2,4,0,,0.00,4,Fog,293
2012-10-4,78,66,53,57,50,41,88,66,28,30.31,30.26,30.22,10.0,7.1,1.2,8,1,,0.00,0,,324
2012-10-5,80,66,51,55,49,41,88,62,24,30.26,30.16,30.05,10.0,7.7,2.0,9,1,,0.00,0,,259
2012-10-6,77,65,53,55,52,50,88,70,39,30.09,30.03,29.97,10.0,7.8,2.0,8,2,,0.00,2,Thunderstorm,301
2012-10-7,59,54,50,50,44,36,88,68,45,30.11,30.06,30.00,10.0,9.5,1.0,10,3,21,0.00,3,Rain-Thunderstorm,304
2012-10-8,60,54,48,46,43,36,82,69,45,30.18,30.12,30.07,10.0,9.9,7.0,10,2,,0.00,7,,27
2012-10-9,66,58,50,46,42,37,82,63,35,30.17,30.12,30.07,10.0,9.7,1.0,6,2,,0.00,5,,79
2012-10-10,69,56,42,50,45,39,88,69,40,30.20,30.15,30.11,10.0,8.3,1.0,8,2,18,0.00,2,,321
2012-10-11,71,56,41,46,39,23,87,58,16,30.31,30.24,30.18,10.0,8.7,0.2,7,1,,0.00,1,,181
2012-10-12,71,64,57,55,50,43,82,63,46,30.30,30.26,30.22,10.0,9.8,1.0,12,1,21,0.00,6,Rain,302
2012-10-13,73,66,59,54,45,37,82,51,27,30.38,30.32,30.28,10.0,9.7,0.8,13,5,21,0.00,1,,83
2012-10-14,73,64,55,59,50,41,83,60,47,30.28,30.17,30.04,10.0,10.0,10.0,8,5,,0.00,6,,104
2012-10-15,71,61,51,61,49,34,88,64,27,30.03,29.96,29.92,10.0,7.6,0.5,12,4,24,0.00,3,Fog-Rain,310
2012-10-16,71,58,44,43,36,10,87,53,9,30.01,29.96,29.89,10.0,10.0,10.0,7,2,,0.00,0,,325
2012-10-17,73,58,44,43,36,19,87,50,13,29.99,29.92,29.84,10.0,10.0,7.0,9,2,18,0.00,0,,126
2012-10-18,71,62,53,55,48,37,88,64,42,29.88,29.84,29.80,10.0,8.3,3.0,10,3,,0.00,4,Rain,87
2012-10-19,71,56,42,41,23,-17,81,38,4,29.85,29.82,29.76,10.0,10.0,10.0,15,2,28,0.00,0,,241
2012-10-20,66,55,44,41,35,30,71,49,28,30.01,29.92,29.84,10.0,10.0,10.0,9,2,18,0.00,0,,300
2012-10-21,73,57,41,43,36,21,87,53,14,30.18,30.12,30.01,10.0,9.9,1.0,6,1,,0.00,0,,297
2012-10-22,78,60,42,48,39,30,87,54,18,30.25,30.19,30.15,10.0,9.6,0.8,7,2,,0.00,0,,39
2012-10-23,77,62,46,50,42,32,87,54,19,30.23,30.18,30.13,10.0,7.4,0.2,7,0,,0.00,0,,154
2012-10-24,78,61,44,50,42,32,87,59,18,30.22,30.16,30.10,10.0,8.4,0.8,6,1,,0.00,0,,101
2012-10-25,77,64,50,50,46,41,82,56,28,30.16,30.11,30.07,10.0,10.0,7.0,9,2,18,0.00,1,,84
2012-10-26,80,70,60,54,47,37,77,51,23,30.09,30.02,29.95,10.0,10.0,10.0,9,3,,0.00,3,,94
2012-10-27,64,57,50,52,46,41,88,67,52,29.95,29.88,29.82,10.0,9.5,5.0,10,3,20,0.00,2,,302
2012-10-28,51,48,44,45,40,32,82,71,57,29.89,29.83,29.79,10.0,9.8,5.0,13,6,24,0.00,7,Rain,306
2012-10-29,51,46,42,32,26,10,61,46,25,29.89,29.85,29.76,10.0,10.0,10.0,16,10,31,0.00,3,,313
2012-10-30,53,47,41,23,9,-15,46,27,6,29.80,29.72,29.68,10.0,10.0,10.0,16,9,30,0.00,0,,296
2012-10-31,60,48,35,21,6,-36,56,25,4,29.89,29.85,29.79,10.0,10.0,10.0,13,7,23,0.00,0,,293